Location: Caltech
(34.1382°N, 118.1253°W)
Time: 04:06:06
(UTC-08:00)

Iridium 72 - Visible Passes

Search period start: 12 February 2016 00:00
Search period end: 22 February 2016 00:00
Orbit: 776 x 779 km, 86.4° (Epoch: 11 February)

Date Brightness Start Highest point End Pass type
(mag) Time Alt. Az. Time Alt. Az. Time Alt. Az.
12 Feb 6.4 19:26:54 10° SSW 19:31:55 49° W 19:36:59 10° N visible
13 Feb 7.4 06:00:53 10° NNE 06:05:39 35° E 06:10:24 10° SSE visible
13 Feb 5.4 18:53:10 10° S 18:58:23 85° E 19:03:37 10° N visible
14 Feb 8.4 05:28:19 10° NE 05:31:56 19° E 05:35:31 10° ESE visible
14 Feb 5.8 18:20:04 10° SSE 18:24:57 43° E 18:29:51 10° NNE visible
14 Feb 8.2 20:02:26 10° WSW 20:05:49 17° WNW 20:09:14 10° NW visible
15 Feb 7.2 19:27:26 10° SSW 19:32:05 33° W 19:36:46 10° NNW visible
16 Feb 6.5 06:00:42 10° N 06:05:49 53° E 06:10:53 10° SSE visible
16 Feb 6.0 18:53:18 10° S 18:58:28 65° W 19:03:39 10° N visible
17 Feb 7.8 05:27:43 10° NNE 05:32:09 27° E 05:36:33 10° SE visible
17 Feb 5.5 18:19:50 10° S 18:24:58 65° E 18:30:08 10° N visible
17 Feb 8.7 20:04:30 10° W 20:06:07 11° WNW 20:07:44 10° WNW visible
18 Feb 8.6 04:55:36 10° NE 04:58:23 14° ENE 05:01:08 10° ESE visible
18 Feb 8.0 19:28:16 10° SW 19:32:17 22° W 19:36:20 10° NNW visible
19 Feb 5.7 06:00:41 10° N 06:05:55 80° E 06:11:08 10° S visible
19 Feb 6.8 18:53:41 10° SSW 18:58:36 43° W 19:03:33 10° NNW visible
20 Feb 7.0 05:27:25 10° NNE 05:32:20 41° E 05:37:14 10° SSE visible
20 Feb 5.6 18:19:50 10° S 18:25:02 84° W 18:30:16 10° N visible
21 Feb 8.1 04:54:42 10° NNE 04:58:38 21° E 05:02:34 10° SE visible
21 Feb 8.6 19:29:36 10° WSW 19:32:33 15° WNW 19:35:30 10° NW visible
